Songpan, China
Current Conditions -  °F | °C
As of 5:00 AM on Thursday 23 Oct 2014 (Local Time) from ZUUU Reporting Station
Haze Haze  
Wind Chill: 61°   Ceiling: Unl
Heat Index: 61°   Visibility: 1.1mi
Dew Point: 57°   Wind: 0mph
Humidity: 88%   Direction: NA
Pressure: 30.15"   Gusts: NA
Location:  32.65°N, 103.57°E
Report Text: ZUUU 222100Z 00000MPS 1800 R02L/0900V1300D R02R/1100V1400NBRNSC 16/14 Q1021 BECMG TL2230 1400 BR
Loading
Personal Weather Stations






























Interactive Weather Map
Tropical Storm Tracking
New forecast layout! Learn more

10-Day Weather Forecast

Advertisements
Track Severe Weather on mobile